Terminal Aerodrome Forecast
Issued by NWS

Home | Current Version | Previous Version | Text Only | Print | Product List | Glossary On
Versions: 1 2 3 4 5 6 7 8 9 10 11 12 13 14 15 16 17 18
000
FTUS46 KSGX 282158 AAA
TAFSNA
TAF AMD
KSNA 282158Z 2822/2918 23009KT P6SM FEW022
     FM290300 VRB04KT P6SM SCT015
     FM290700 VRB03KT P6SM OVC010=

USA.gov is the U.S. government's official web portal to all federal, state and local government web resources and services.